Location: 81360 Arifat, France
(43.7204°N, 2.3408°E)
Time: 03:22:07
(UTC+01:00)

ACS3 Solar Sail - Pass Details

Date: 20 October 2025
Orbit: 909 x 993 km, 97.3° (Epoch: 13 November)

Event Time Altitude Azimuth Distance (km) Brightness Sun altitude
Rises 04:59:13 0° 17° (NNE) 3,553 5.2 -34.9°
Reaches altitude 10° 05:01:45 10° 24° (NNE) 2,611 4.5 -34.5°
Maximum altitude 05:07:19 45° 97° (E) 1,243 2.6 -33.6°
Enters shadow 05:08:49 37° 134° (SE) 1,393 2.7 -33.3°
